Regional Weather Roundup
Issued by NWS New Orleans/Baton Rouge, LA

Current Version | Previous Version | Text Only | Print | Product List | Glossary On
Versions: 1 2 3 4 5 6 7 8 9 10 11 12 13 14 15 16 17 18 19 20 21 22 23 24 25 26 27 28 29 30 31 32 33 34 35 36 37 38 39 40 41 42 43 44 45 46 47 48 49 50
000
ASUS44 KLIX 150313
RWRLIX
NEW ORLEANS REGIONAL WEATHER ROUNDUP
NATIONAL WEATHER SERVICE NEW ORLEANS LA
900 PM CST THU DEC 14 2017

NOTE: "FAIR" INDICATES FEW OR NO CLOUDS BELOW 12,000 FEET WITH NO
      SIGNIFICANT WEATHER AND/OR OBSTRUCTIONS TO VISIBILITY.
      SKY/WX - SKY CONDITION AND SIGNIFICANT WEATHER.
      TMP - AIR TEMPERATURE.     DP    - DEWPOINT TEMPERATURE.
      RH  - RELATIVE HUMIDITY.   PRES  - PRESSURE.
      HI  - HEAT INDEX.          WCI   - WIND CHILL INDEX.

*  THESE STATIONS ARE NOT NWS OR FAA STATIONS AND ARE NOT UNDER
   NWS QUALITY CONTROL.

LAZ038-040-048-061>063-065>067-069-150400-
SOUTHEAST LOUISIANA

CITY           SKY/WX    TMP DP  RH WIND       PRES   REMARKS
N.O. INTL ARPT CLOUDY    55  50  83 S6        30.02S
N.O. LAKEFRONT PTCLDY    55  46  71 S3        30.03R
N.O. DOWNTOWN*   N/A     58  49  72 S3        30.03S
RESERVE*         N/A     53  46  76 CALM      30.03S
SLIDELL        CLOUDY    48  46  93 CALM      30.02S
BATON ROUGE    PTCLDY    49  45  86 CALM      30.03R
BOOTHVILLE     CLOUDY    56  53  90 CALM      30.04R FOG
BELLE CHASSE   CLOUDY    50  50 100 CALM      30.02S
BOGALUSA*        N/A     47  45  90 MISG      30.03F
GALLIANO*      CLOUDY    51  47  88 CALM      30.03S
NEW ROADS*     MOCLDY    47  44  88 NW3       30.04R
GONZALES*      MOCLDY    51  46  84 CALM      30.02S
HAMMOND*       CLOUDY    46  45  93 CALM      30.03R
HOUMA*         CLOUDY    52  50  92 CALM      30.03S
PORT FOURCHON* CLEAR     59  52  77 E3        30.03F

$$

MSZ070-080>082-150400-
SOUTHERN MISSISSIPPI

CITY           SKY/WX    TMP DP  RH WIND       PRES   REMARKS
MCCOMB         PTCLDY    47  41  80 N3        30.03S
GULFPORT       CLOUDY    50  48  93 CALM      30.03R
BILOXI         CLOUDY    53  49  87 CALM      30.03R
PASCAGOULA     CLOUDY    47  45  93 CALM      30.04R
STENNIS ARPT*  CLEAR     46  45  93 CALM      30.04R

$$

COASTAL OBSERVATIONS
LAKE AND NEARSHORE STATIONS

STATION/POSITION TIME  TEMP    WIND        PRES    WAVE
                       AIR SEA DIR/SP/G            HT/PER
                 (UTC) (F)     (DEG/KT/KT) (MB)    (FT/S)
PASCAGOULA       0248   53     300/  5/  6 1016.7
WAVELAND YACHT   0248   52 54  350/  2/  3 1016.7
GRAND ISLE       0248   59 62   80/  2/  2 1016.8
SOUTHWEST PASS   0248   62 60   60/  4/  5 1017.6
NEW CANAL        0248   57 55  190/  3/  4 1016.3
SHELL BEACH      0248   54 55  180/  4/  4 1017.0

OFFSHORE STATIONS

STATION/POSITION TIME  TEMP    WIND        PRES    WAVE
                       AIR SEA DIR/SP/G            HT/PER
                 (UTC) (F)     (DEG/KT/KT) (MB)    (FT/S)
64 S DAUPHIN ISL 0250   67 70  270/  6/  8 1017.0    1/ 4

$$




USA.gov is the U.S. government's official web portal to all federal, state and local government web resources and services.